Theta_e
328 325 324 328 329 328 326 329 332 331 330 330 330 328 327 332 332 333 336 336 339 336 342 336 333 345 345 346 346 345 345 340 336 333 335 340 340 335 334 334 333 332 331 329
326 325 327 330 328 327 327 330 330 328 329 326 326 326 330 333 334 337 336 342 340 341 337 340 344 344 345 345 345 342 344 339 332 333 339 339 340 338 337 336 333 330 330 327
325 327 330 330 328 326 329 328 328 327 326 326 329 333 334 333 336 333 335 338 344 343 343 336 336 329 341 335 328 326 340 339 332 334 336 340 332 333 334 332 327 328 326 324
326 328 328 327 328 328 326 327 326 327 328 327 330 335 335 333 331 333 331 335 339 342 340 337 336 332 337 330 332 329 333 343 330 338 332 326 327 328 333 327 325 324 323 322
327 328 327 329 330 330 331 330 330 330 328 330 333 334 335 333 333 332 333 333 332 334 338 340 338 339 335 331 336 333 331 343 333 326 324 325 325 328 332 329 321 320 323 323
327 329 329 328 328 330 331 331 331 331 329 334 332 335 333 327 331 333 332 329 328 332 338 337 333 331 332 331 329 329 336 337 335 333 333 328 324 324 327 324 323 324 324 323
328 329 328 328 327 329 331 330 330 330 336 336 332 333 330 330 329 328 328 330 330 332 333 330 332 330 330 329 327 334 334 337 336 332 331 332 331 331 329 326 323 322 321 321
334 331 331 330 328 329 332 331 332 335 337 330 332 334 330 329 329 330 329 330 331 331 332 332 332 331 330 330 330 331 336 331 331 327 333 332 330 329 328 324 321 321 321 319
334 336 333 330 331 331 334 332 330 333 334 332 332 331 330 330 330 329 331 330 330 330 331 330 331 331 331 329 330 330 328 327 327 330 330 329 328 327 323 321 321 320 316 315
332 337 333 334 334 331 331 332 334 330 332 332 332 331 329 327 330 328 329 330 329 328 329 329 328 329 329 329 328 328 328 327 326 326 325 323 322 322 322 321 318 316 314 312
332 334 335 334 334 334 335 335 333 331 328 329 331 332 327 329 329 328 328 328 328 328 327 328 329 328 327 328 327 325 324 324 325 323 322 322 322 322 320 317 315 314 312 310
337 335 335 335 333 332 331 334 333 333 333 331 331 328 328 327 328 328 329 328 328 327 327 327 327 329 327 326 325 324 324 324 323 323 323 322 320 318 316 315 313 310 309 309
338 334 334 335 337 333 333 332 331 331 333 333 333 334 332 329 328 329 330 329 328 328 327 327 326 325 326 326 324 323 323 324 323 322 322 321 318 316 314 309 309 308 308 307
336 333 335 336 334 333 336 334 332 332 334 331 330 331 331 330 329 330 327 329 328 328 327 325 323 323 324 324 322 322 323 323 321 321 320 317 316 313 308 308 308 308 308 309
337 337 337 333 330 332 335 332 332 334 333 329 330 332 331 329 328 328 329 325 326 327 325 323 321 322 323 323 323 323 324 322 321 319 317 316 313 310 309 309 311 308 308 309
336 338 337 338 334 334 333 331 330 332 330 330 329 331 328 327 326 328 326 325 328 326 324 322 320 320 323 323 323 324 322 320 319 318 316 314 312 311 309 310 307 308 308 309
338 337 336 337 334 334 333 332 332 332 331 331 331 330 330 329 329 328 327 326 327 325 323 322 319 321 322 322 323 322 320 319 318 317 315 312 311 309 309 310 310 310 310 309
335 336 334 335 334 334 337 334 333 332 333 332 332 332 331 330 330 328 328 327 325 324 322 320 319 321 323 321 323 320 319 319 317 316 312 311 309 310 309 310 310 309 309 309
331 335 337 338 335 334 335 335 333 331 335 333 331 331 332 331 329 330 328 326 324 322 320 319 320 323 324 321 322 319 319 318 316 314 311 310 310 310 310 311 310 310 309 310
335 333 334 333 335 340 334 334 333 332 335 332 332 333 331 330 329 329 326 326 323 320 319 319 321 323 324 322 321 319 318 316 315 312 311 310 309 310 310 310 310 310 310 310
337 334 333 331 336 336 332 330 331 336 332 332 332 331 330 330 329 326 325 324 323 321 319 320 322 324 322 321 320 317 317 316 314 311 310 309 309 309 311 310 309 311 310 310
339 336 332 330 333 335 331 332 335 336 332 329 331 330 329 329 326 324 323 323 322 321 319 320 322 323 321 319 318 317 317 316 312 310 309 309 309 310 310 310 311 310 311 311
338 334 333 332 330 330 329 329 332 330 331 332 330 328 329 326 325 323 323 323 321 320 320 320 322 322 320 318 318 316 317 315 311 311 311 309 308 310 308 308 310 309 310 311
332 332 329 326 328 330 329 328 331 330 331 331 330 328 326 325 323 323 323 321 320 318 321 320 320 321 320 318 317 316 316 312 312 312 311 309 308 309 310 306 308 307 308 310
329 329 328 328 327 328 329 330 331 331 330 329 328 326 324 324 322 322 322 320 317 318 321 321 320 320 319 318 317 316 316 312 312 311 309 309 309 310 310 307 305 305 305 306
329 325 327 328 326 328 328 330 329 330 329 328 328 326 325 324 322 322 319 318 319 321 321 321 321 321 319 317 316 316 315 312 311 310 309 308 310 310 309 310 310 310 310 307
Wind_Speed
15 2 7 8 7 8 8 9 13 12 4 2 5 5 9 13 23 21 14 20 12 30 21 10 7 13 12 11 8 6 4 6 6 5 2 2 8 10 12 9 9 7 8 15
6 9 14 2 4 2 6 8 6 7 10 7 8 9 13 21 15 19 23 20 24 27 28 16 18 15 5 10 15 9 14 10 6 6 4 7 7 12 10 11 7 9 12 16
8 14 6 3 5 6 6 7 6 5 7 8 4 14 9 8 22 17 4 3 16 17 24 10 12 10 8 17 29 14 18 16 8 7 7 8 10 11 10 5 7 6 8 13
9 4 4 8 2 6 6 7 7 8 5 4 11 2 7 4 7 5 14 13 12 15 10 13 8 11 7 8 26 6 10 17 8 7 4 7 9 10 8 6 8 12 17 16
10 3 2 7 6 6 3 8 7 7 7 6 8 6 7 2 5 4 11 12 17 6 12 13 16 20 13 10 10 10 19 10 9 9 7 8 10 12 13 13 15 14 14 12
5 4 6 5 7 5 4 8 11 6 5 4 7 5 5 4 2 3 17 14 25 8 20 18 20 22 19 12 4 13 6 10 10 10 11 12 13 18 17 17 14 15 17 21
7 2 6 9 6 7 11 8 5 7 4 4 6 8 7 5 5 7 15 26 28 27 19 22 16 6 8 8 17 3 2 8 8 9 15 14 14 15 14 11 15 22 24 21
7 4 9 4 4 6 6 6 4 2 1 3 5 1 4 7 13 26 29 32 32 29 20 17 15 20 17 15 12 7 4 7 5 16 9 10 11 15 12 15 21 23 22 26
5 6 6 4 21 8 6 7 6 2 4 5 4 5 6 6 8 19 24 26 27 26 22 26 22 20 27 25 15 15 14 14 11 4 8 12 12 13 17 22 20 24 27 27
7 4 11 5 11 14 9 4 6 4 2 2 3 4 2 8 7 9 15 17 28 33 32 33 33 30 25 24 20 18 18 17 15 16 17 18 18 19 19 22 29 29 27 28
2 4 7 11 7 6 6 3 3 2 4 2 2 2 6 2 9 12 32 38 33 33 32 30 27 25 21 20 19 21 20 19 19 21 17 19 18 19 22 28 28 26 29 28
5 4 6 3 6 5 3 6 3 4 4 2 3 4 6 14 21 29 34 34 28 20 27 23 27 24 25 24 22 22 18 18 19 15 14 16 20 26 30 28 30 27 24 21
3 4 4 6 5 6 3 2 4 3 2 1 2 1 3 26 31 31 30 19 11 9 25 26 23 24 24 25 24 23 21 21 19 16 19 23 26 28 30 28 25 26 23 17
5 2 3 4 6 2 14 5 5 7 4 4 2 5 9 13 13 22 28 17 8 22 23 25 27 26 24 25 23 23 21 23 22 17 21 23 24 28 26 22 24 21 19 17
4 1 1 4 4 6 11 3 4 8 12 2 3 9 4 7 12 21 16 16 19 19 24 23 26 24 23 22 22 21 21 22 20 20 22 22 25 24 26 20 23 22 19 17
2 2 5 3 8 1 2 5 5 5 8 7 10 8 14 19 18 13 13 18 15 18 21 23 26 23 21 22 21 18 17 20 19 21 20 22 22 26 18 22 18 18 18 18
4 2 3 3 8 1 6 2 4 8 8 7 6 4 21 12 15 10 10 15 16 21 21 23 22 19 19 20 15 15 17 19 19 21 20 18 22 20 18 18 20 19 18 16
2 3 1 2 6 4 4 10 8 12 10 11 17 14 19 18 14 13 14 14 16 17 17 20 17 16 17 18 14 14 17 20 20 20 18 20 21 18 18 16 17 18 17 16
6 3 2 0 3 6 9 7 3 4 6 9 8 10 14 21 18 10 10 13 14 14 16 17 15 14 16 18 12 15 17 19 17 18 17 20 13 13 16 17 18 17 17 16
8 6 4 4 3 3 3 7 8 2 3 12 13 16 19 14 5 2 10 10 13 14 16 16 16 15 15 13 14 16 18 15 17 11 17 19 10 15 17 15 16 15 17 16
4 4 3 2 3 3 5 16 7 1 6 3 12 18 18 12 10 9 10 12 12 13 15 13 15 13 13 12 15 16 14 15 16 13 15 17 16 13 18 17 15 13 15 16
5 4 2 3 3 3 17 9 3 3 4 9 14 17 15 12 13 12 12 12 13 14 13 12 12 11 13 14 14 14 12 14 15 14 16 17 16 13 16 16 14 13 13 14
3 6 6 5 5 8 15 13 14 10 2 14 14 12 10 14 13 13 12 12 12 12 12 11 10 10 11 13 14 11 12 17 10 11 12 18 15 11 14 13 11 11 10 12
6 5 3 6 3 18 16 17 20 14 14 11 10 8 11 14 13 13 11 10 9 12 9 10 11 9 10 12 14 13 13 10 10 10 15 15 12 10 14 13 10 12 9 9
4 4 4 3 11 18 16 17 17 13 11 9 9 11 11 8 10 8 8 10 11 10 8 12 9 7 9 12 13 14 15 8 10 15 17 14 10 12 12 9 14 15 14 12
5 4 3 4 7 8 10 10 10 10 9 8 12 9 8 7 8 5 7 8 8 7 10 10 8 6 7 11 13 14 15 9 10 12 14 15 11 12 12 10 11 12 13 15
Wind_Direction
266 318 245 225 232 235 331 55 149 217 240 14 300 296 359 98 60 59 170 187 147 151 140 129 206 138 165 202 227 329 278 280 284 230 149 302 278 305 311 329 297 303 294 299
310 251 255 89 352 276 337 34 23 354 342 352 311 287 62 53 38 51 24 110 172 150 164 157 168 142 92 21 82 347 290 282 255 198 196 248 278 302 319 325 314 316 282 282
225 248 244 331 300 312 54 47 354 330 323 329 32 35 32 13 51 59 67 106 151 183 179 195 160 138 196 125 57 269 258 253 256 237 238 253 295 306 309 285 297 262 291 316
246 168 55 283 315 62 53 5 347 325 11 268 45 209 7 51 53 31 286 284 196 188 204 189 218 169 168 184 313 220 235 252 246 257 277 311 307 311 291 290 292 305 307 297
268 111 174 55 59 36 354 352 303 279 265 72 354 69 304 62 313 329 244 303 291 260 204 180 174 135 123 107 165 172 268 249 252 288 293 276 286 286 280 293 299 304 307 292
294 2 62 55 5 67 346 1 329 352 65 45 318 108 278 11 312 257 252 333 6 137 129 158 140 132 109 107 132 299 205 240 292 296 300 315 306 312 301 313 299 306 303 303
313 287 93 56 4 30 49 41 349 16 31 240 10 57 231 268 19 32 46 57 39 83 104 119 107 80 3 17 358 161 246 287 303 319 300 297 288 273 300 292 308 313 318 321
36 28 4 84 57 73 33 84 125 326 15 242 354 6 260 237 354 39 36 48 65 58 70 83 81 46 30 39 36 39 38 359 329 345 285 279 291 303 313 320 317 321 325 325
54 294 322 41 66 43 348 36 276 33 327 70 307 315 342 326 34 42 52 53 48 52 71 62 56 46 38 42 38 41 45 26 8 327 298 313 319 330 322 328 330 333 340 332
215 74 284 340 64 58 104 193 9 4 44 7 246 84 318 350 357 37 49 44 63 62 68 70 64 60 58 57 52 36 30 30 29 9 359 349 346 344 344 338 338 337 332 325
39 90 15 51 21 350 13 2 275 175 123 175 5 272 226 4 38 47 37 51 37 55 64 56 54 51 36 29 17 18 13 2 0 13 3 350 352 340 332 336 339 333 330 330
351 112 60 130 245 199 199 198 166 121 311 356 145 273 1 71 49 53 54 50 33 28 53 50 47 48 39 37 35 33 24 25 12 15 2 357 343 341 342 342 337 344 348 345
355 356 106 334 352 355 324 178 113 127 27 259 226 181 331 69 72 73 69 51 36 19 50 45 37 33 29 22 19 13 10 9 10 7 349 339 342 343 347 352 356 352 357 3
88 44 147 158 204 178 357 230 147 87 306 241 187 115 41 84 84 86 99 103 61 44 46 38 28 23 17 13 13 7 9 1 3 354 344 349 349 352 1 3 7 10 15 26
85 155 358 186 203 163 192 54 155 176 218 130 33 91 60 106 119 113 98 63 48 50 41 34 29 21 15 19 18 9 5 360 6 353 345 352 352 0 355 3 7 23 28 26
62 268 358 254 259 5 202 1 271 4 59 51 64 77 154 134 116 99 74 39 54 45 38 29 21 13 10 11 12 12 8 357 348 347 351 355 357 352 4 14 17 28 27 26
141 81 36 293 341 16 2 254 64 73 58 73 57 181 134 98 95 83 30 37 59 38 31 21 16 4 2 10 14 6 355 349 355 354 353 4 351 356 13 14 16 19 22 25
71 35 40 273 353 333 184 45 46 79 59 67 75 82 111 129 112 81 85 60 41 33 27 19 12 2 4 12 18 359 346 350 355 349 4 2 356 21 12 24 18 29 27 25
131 88 6 190 254 148 22 356 8 66 35 77 91 121 136 122 103 93 79 50 53 42 27 22 10 5 2 15 14 351 347 352 350 357 10 3 12 16 15 16 19 28 30 31
64 65 108 27 37 41 272 302 285 62 9 50 72 77 74 70 62 65 59 69 52 39 28 22 10 357 7 22 1 357 358 357 357 12 7 5 8 26 16 23 22 31 36 32
37 33 98 81 83 284 228 259 327 71 236 6 105 102 96 100 108 88 67 56 42 26 17 18 10 10 27 22 9 9 356 1 5 25 16 5 23 45 24 23 29 30 41 49
155 136 163 91 97 262 246 259 101 182 333 332 101 115 107 107 94 77 65 53 31 20 14 20 18 13 3 12 8 5 356 354 15 31 24 25 24 35 26 24 32 36 37 42
115 191 164 165 196 173 146 153 168 157 79 105 97 81 102 88 75 67 63 45 26 18 9 21 23 10 358 2 359 359 350 355 31 21 26 26 13 17 16 15 23 29 51 52
32 120 97 70 91 149 162 159 155 138 119 111 102 100 96 82 73 67 47 30 11 7 11 21 22 4 4 360 354 353 346 13 24 8 19 17 14 30 28 26 36 44 47 41
188 132 162 118 33 85 90 104 128 122 116 116 130 114 100 86 70 53 24 359 1 21 23 16 24 18 3 352 355 348 351 33 31 30 20 21 37 25 26 46 46 44 40 36
29 171 111 190 117 97 56 137 143 143 157 164 164 144 130 127 94 44 17 2 22 9 4 10 18 17 8 356 347 345 353 39 28 30 30 32 39 33 27 46 36 22 27 33